This demonstration page uses our WeatherBlox Daily Observations layout. Learn more.

Left ArrowRight Arrow

36.17497, -115.13722

Hourly Observations for March 11, 2016

Temp ( °F °C ) Dew Point ( °F °C ) Humidity (%) Winds ( mph kmh ) Pressure ( in mb ) Visibility ( mi km ) Precip ( " mm )
12:53 am 00:53 Clear 67 19.4 22 -5.6 18 18 SSW 9 15 29.95 1014 10 16.0934 0 0
1:53 am 01:53 Clear 63 17.2 22 -5.6 21 21 Calm 29.94 1014 10 16.0934 0 0
2:53 am 02:53 Clear 62 16.7 23 -5 22 22 ENE 3 6 29.93 1013 10 16.0934 0 0
3:53 am 03:53 Clear 63 17.2 24 -4.4 23 23 E 5 7 29.91 1013 10 16.0934 0 0
4:53 am 04:53 Clear 60 15.6 23 -5 24 24 E 5 7 29.91 1013 10 16.0934 0 0
5:53 am 05:53 Clear 58 14.4 26 -3.3 29 29 Calm 29.91 1013 10 16.0934 0 0
6:53 am 06:53 Sunny 58 14.4 26 -3.3 29 29 Calm 29.92 1013 10 16.0934 0 0
7:53 am 07:53 Sunny 62 16.7 26 -3.3 25 25 Calm 29.93 1013 10 16.0934 0 0
8:53 am 08:53 Sunny 66 18.9 26 -3.3 22 22 SSE 6 9 29.92 1013 10 16.0934 0 0
9:53 am 09:53 Sunny 69 20.6 25 -3.9 19 19 ESE 10 17 29.92 1013 10 16.0934 0 0
10:53 am 10:53 Sunny 71 21.7 26 -3.3 19 19 SE 13 20 29.88 1012 10 16.0934 0 0
11:53 am 11:53 Sunny 75 23.9 27 -2.8 17 17 SSE 15 24 29.85 1011 10 16.0934 0 0
12:53 pm 12:53 Sunny 77 25 25 -3.9 14 14 SSW 20 31 29.8 1009 10 16.0934 0 0
1:53 pm 13:53 Sunny 77 25 24 -4.4 14 14 SW 14 22 29.76 1008 10 16.0934 0 0
2:53 pm 14:53 Sunny 78 25.6 19 -7.2 11 11 SSW 23 37 29.71 1006 10 16.0934 0 0
3:53 pm 15:53 Sunny 78 25.6 20 -6.7 11 11 SW 13 20 29.67 1005 10 16.0934 0 0
4:53 pm 16:53 Sunny 75 23.9 19 -7.2 12 12 SSW 20 31 29.65 1004 10 16.0934 0 0
5:53 pm 17:53 Mostly Clear 74 23.3 22 -5.6 14 14 SW 18 30 29.64 1004 10 16.0934 0 0
6:53 pm 18:53 Mostly Cloudy 71 21.7 27 -2.8 19 19 SW 25 41 29.64 1004 10 16.0934 0 0
7:53 pm 19:53 Mostly Clear 58 14.4 37 2.8 46 46 W 30 48 29.72 1007 10 16.0934 0 0
8:53 pm 20:53 Mostly Cloudy 55 12.8 34 1.1 45 45 WSW 24 39 29.78 1008 10 16.0934 0 0
9:53 pm 21:53 Cloudy 54 12.2 32 0 43 43 W 14 22 29.74 1007 10 16.0934 0 0
10:20 pm 22:20 Cloudy 52 11 32 0 47 47 S 12 19 29.68 1005 10 16.0934 0 0
10:53 pm 22:53 Mostly Cloudy 52 11.1 32 0 47 47 SSW 14 22 29.75 1007 10 16.0934 0 0
11:53 pm 23:53 Mostly Clear 52 11.1 31 -0.6 45 45 SW 16 26 29.74 1007 10 16.0934 0 0

Powered by AerisWeather